N1BFO Weather Reports


Display with metric or nautical units.
time (UTC)temp
F
wind
direction
speed
MPH
gust
MPH
rain 1hr
in
rain 24hr
in
rain mn
in
humidity
%
barometer
mb
20260504012029 40 0 0.0 0.0 0.00 0.02 0.02 67 1009.0
20260504011544 40 0 0.0 0.0 0.00 0.02 0.02 68 1009.0
20260504011025 40 0 0.0 0.0 0.00 0.02 0.02 67 1009.0
20260504010529 40 0 0.0 0.0 0.00 0.02 0.02 66 1008.8
20260504010048 40 0 0.0 0.0 0.00 0.02 0.02 66 1008.8
20260504005527 41 0 0.0 0.0 0.00 0.02 0.02 65 1008.8
20260504005024 41 0 0.0 0.0 0.00 0.02 0.02 63 1008.6
20260504004539 42 0 0.0 0.0 0.00 0.02 0.02 63 1008.6
20260504004024 42 0 0.0 0.0 0.00 0.02 0.02 61 1008.5
20260504003527 43 0 0.0 0.0 0.00 0.02 0.02 60 1008.5
20260504003040 43 0 0.0 0.0 0.00 0.02 0.02 60 1008.4
20260504002527 44 0 0.0 0.0 0.00 0.02 0.02 59 1008.4
20260504002027 45 0 0.0 0.0 0.00 0.02 0.02 54 1008.4
20260504001548 46 0 0.0 0.0 0.00 0.02 0.02 53 1008.2
20260504001026 46 0 0.0 1.0 0.00 0.02 0.02 49 1008.3
20260504000527 47 0 0.0 1.0 0.00 0.02 0.02 48 1008.1
20260504000050 47 0 0.0 2.0 0.00 0.02 0.02 47 1008.1
20260503235529 48 0 0.0 2.0 0.00 0.02 0.02 46 1008.1
20260503235027 48 29 0.0 3.0 0.00 0.02 0.02 46 1008.1
20260503234601 49 0 0.0 3.0 0.00 0.02 0.02 45 1008.1
20260503234027 49 72 0.0 3.0 0.00 0.02 0.02 44 1007.9
20260503233524 49 115 0.0 3.0 0.00 0.02 0.02 43 1007.8
20260503233046 49 134 0.0 3.0 0.00 0.02 0.02 43 1007.8
20260503232523 50 0 0.0 3.0 0.00 0.02 0.02 43 1007.8
20260503232027 50 340 1.0 3.0 0.00 0.02 0.02 42 1007.7
20260503231540 50 0 1.0 3.0 0.00 0.02 0.02 43 1007.7
20260503231029 50 0 0.0 6.0 0.00 0.02 0.02 43 1007.6
20260503230528 50 345 1.0 6.0 0.00 0.02 0.02 41 1007.6
20260503230048 51 0 1.0 9.0 0.00 0.02 0.02 42 1007.6
20260503225527 51 105 2.0 9.0 0.00 0.02 0.02 41 1007.5
20260503225028 51 274 1.0 10.0 0.00 0.02 0.02 40 1007.5
20260503224543 51 349 2.0 11.0 0.00 0.02 0.02 40 1007.5
20260503224024 51 0 3.0 11.0 0.00 0.02 0.02 40 1007.3
20260503223525 51 62 3.0 11.0 0.00 0.02 0.02 39 1007.2
20260503223041 52 60 4.0 7.0 0.00 0.02 0.02 39 1007.0
20260503222523 51 65 3.0 7.0 0.00 0.02 0.02 39 1007.0
20260503222023 51 330 0.0 3.0 0.00 0.02 0.02 41 1007.0
20260503221548 51 337 0.0 5.0 0.00 0.02 0.02 42 1006.9
20260503221027 51 64 1.0 8.0 0.00 0.02 0.02 41 1006.8
20260503220525 52 77 1.0 14.0 0.00 0.02 0.02 40 1006.8
20260503220048 52 347 2.0 14.0 0.00 0.02 0.02 40 1006.9
20260503215526 52 352 3.0 10.0 0.00 0.02 0.02 39 1006.7
20260503215031 52 30 1.0 7.0 0.00 0.02 0.02 41 1006.8
20260503214544 52 310 2.0 7.0 0.00 0.02 0.02 41 1006.6
20260503214028 52 305 2.0 7.0 0.00 0.02 0.02 40 1006.6
20260503213528 52 327 1.0 8.0 0.00 0.02 0.02 39 1006.5
20260503213043 52 75 2.0 9.0 0.00 0.02 0.02 40 1006.4
20260503212526 52 31 4.0 9.0 0.00 0.02 0.02 39 1006.4
20260503212028 53 53 2.0 7.0 0.00 0.02 0.02 40 1006.3
20260503211539 53 321 3.0 7.0 0.00 0.02 0.02 40 1006.3
20260503211027 53 3 1.0 5.0 0.00 0.02 0.02 42 1006.3
20260503210526 53 39 1.0 7.0 0.00 0.02 0.02 39 1006.1
20260503210040 53 326 2.0 15.0 0.00 0.02 0.02 39 1006.0
20260503205528 52 224 3.0 15.0 0.00 0.02 0.02 40 1005.9
20260503205027 53 23 4.0 11.0 0.00 0.02 0.02 38 1006.0
20260503204536 52 85 2.0 12.0 0.00 0.02 0.02 39 1005.8
20260503204025 52 89 1.0 12.0 0.00 0.02 0.02 41 1005.7
20260503203527 53 319 2.0 10.0 0.00 0.02 0.02 39 1005.8
20260503203053 53 4 3.0 10.0 0.00 0.02 0.02 40 1005.7
20260503202525 53 264 3.0 10.0 0.00 0.02 0.02 39 1005.5
20260503202028 53 353 3.0 10.0 0.00 0.02 0.02 39 1005.6
20260503201541 53 351 2.0 6.0 0.00 0.02 0.02 40 1005.5
20260503201023 53 280 2.0 5.0 0.00 0.02 0.02 38 1005.4
20260503200527 54 60 1.0 6.0 0.00 0.02 0.02 39 1005.5
20260503200039 53 187 1.0 9.0 0.00 0.02 0.02 42 1005.5
20260503195528 53 321 2.0 11.0 0.00 0.02 0.02 40 1005.5
20260503195028 53 68 2.0 11.0 0.00 0.02 0.02 40 1005.4
20260503194540 53 356 3.0 7.0 0.00 0.02 0.02 40 1005.4
20260503194027 53 108 1.0 7.0 0.00 0.02 0.02 41 1005.3
20260503193530 53 325 1.0 8.0 0.00 0.02 0.02 42 1005.5
20260503193046 53 349 4.0 8.0 0.00 0.02 0.02 41 1005.4
20260503192527 53 40 2.0 7.0 0.00 0.02 0.02 42 1005.6
20260503192027 53 79 2.0 7.0 0.00 0.02 0.02 44 1005.6
20260503191544 53 343 1.0 7.0 0.00 0.02 0.02 45 1005.5
20260503191027 53 349 3.0 7.0 0.00 0.02 0.02 43 1005.6
20260503190523 53 25 1.0 8.0 0.00 0.02 0.02 46 1005.7
20260503190039 53 98 1.0 8.0 0.00 0.02 0.02 47 1005.7
20260503185523 53 295 2.0 8.0 0.00 0.02 0.02 48 1005.6
20260503185027 54 332 2.0 7.0 0.00 0.02 0.02 46 1005.6
20260503184539 54 340 1.0 9.0 0.00 0.02 0.02 46 1005.5
20260503184029 54 323 3.0 9.0 0.00 0.02 0.02 47 1005.6
20260503183525 54 285 4.0 10.0 0.00 0.02 0.02 46 1005.6
20260503183042 54 297 3.0 10.0 0.00 0.02 0.02 44 1005.6
20260503182527 54 69 3.0 10.0 0.00 0.02 0.02 47 1005.7
20260503182024 54 62 3.0 6.0 0.00 0.02 0.02 49 1005.7
20260503181543 54 15 1.0 8.0 0.00 0.02 0.02 53 1005.7
20260503181028 53 122 2.0 9.0 0.00 0.02 0.02 53 1005.6
20260503180528 53 304 2.0 9.0 0.00 0.02 0.02 53 1005.8
20260503180050 53 342 2.0 7.0 0.00 0.02 0.02 53 1005.7
20260503175527 52 106 1.0 12.0 0.00 0.02 0.02 54 1005.8
20260503175027 52 281 2.0 12.0 0.00 0.02 0.02 53 1005.9
20260503174540 51 297 3.0 12.0 0.00 0.02 0.02 53 1005.9
20260503174027 51 233 3.0 10.0 0.00 0.02 0.02 53 1005.9
20260503173527 51 319 3.0 10.0 0.00 0.02 0.02 56 1005.8
20260503173044 51 48 3.0 9.0 0.00 0.02 0.02 55 1005.9
20260503172525 51 56 2.0 8.0 0.00 0.02 0.02 54 1005.8
20260503172026 51 300 2.0 11.0 0.00 0.02 0.02 56 1005.7
20260503171547 51 340 5.0 16.0 0.00 0.02 0.02 53 1005.8
20260503171031 51 351 4.0 16.0 0.00 0.02 0.02 53 1005.7
20260503170527 52 63 3.0 15.0 0.00 0.02 0.02 52 1005.8
20260503150526 45 359 1.0 5.0 0.00 0.02 0.02 76 1006.1
20260503131028 42 331 1.0 7.0 0.02 0.02 0.02 88 1006.5
20260503130527 42 35 0.0 6.0 0.02 0.02 0.02 88 1006.5
20260503110526 41 0 1.0 5.0 0.00 0.11 0.00 82 1006.7
20260503081537 42 0 0.0 2.0 0.00 0.12 0.00 86 1007.6
20260503081029 42 0 0.0 1.0 0.00 0.12 0.00 87 1007.7
20260503080527 42 0 0.0 1.0 0.00 0.12 0.00 87 1007.9
20260503072528 43 1 1.0 3.0 0.00 0.12 0.00 86 1008.1
20260503072025 43 0 0.0 3.0 0.00 0.12 0.00 87 1008.0
20260503071551 43 0 0.0 2.0 0.00 0.12 0.00 88 1008.0
20260503071028 43 62 0.0 2.0 0.00 0.12 0.00 88 1008.1
20260503070528 43 37 0.0 1.0 0.00 0.12 0.00 88 1008.1
20260503055027 44 0 0.0 1.0 0.00 0.12 0.00 87 1009.3
20260503054554 44 0 0.0 1.0 0.00 0.12 0.00 87 1009.2
20260503054024 44 342 0.0 1.0 0.00 0.12 0.00 87 1009.0
20260503053527 44 349 0.0 2.0 0.00 0.12 0.00 86 1009.1
20260503053037 44 355 0.0 2.0 0.00 0.12 0.00 86 1009.2
20260503052528 44 0 0.0 2.0 0.00 0.12 0.00 86 1009.2
20260503052026 44 0 0.0 2.0 0.00 0.12 0.00 86 1009.3
20260503051539 44 1 0.0 2.0 0.00 0.12 0.00 85 1009.3
20260503051026 44 3 0.0 2.0 0.00 0.12 0.00 85 1009.4
20260503050524 44 7 0.0 2.0 0.00 0.12 0.00 85 1009.4
20260503050041 45 0 0.0 3.0 0.00 0.12 0.00 85 1009.5
20260503045527 45 0 0.0 3.0 0.00 0.12 0.00 85 1009.6
20260503045029 45 0 0.0 3.0 0.00 0.12 0.00 84 1009.6
20260503044537 45 0 1.0 3.0 0.00 0.12 0.00 85 1009.6
20260503044024 45 0 0.0 2.0 0.00 0.12 0.00 85 1009.7
20260503043528 44 360 0.0 2.0 0.00 0.12 0.00 85 1009.9
20260503043041 45 0 0.0 2.0 0.00 0.12 0.00 85 1009.9
20260503042528 45 0 0.0 2.0 0.00 0.12 0.00 86 1010.0
20260503042025 45 357 0.0 2.0 0.00 0.12 0.00 87 1010.0
20260503041543 45 0 0.0 2.0 0.00 0.12 0.00 87 1010.0
20260503041026 45 28 0.0 1.0 0.00 0.12 0.00 88 1010.1
20260503040524 45 0 0.0 0.0 0.00 0.12 0.00 89 1010.1
20260503040051 45 0 0.0 3.0 0.00 0.12 0.00 89 1010.1
20260503035525 45 0 0.0 3.0 0.00 0.12 0.12 89 1010.1
20260503035025 45 0 0.0 3.0 0.00 0.12 0.12 89 1010.1
20260503034539 45 0 1.0 3.0 0.00 0.12 0.12 90 1010.1
20260503034025 45 0 0.0 1.0 0.00 0.12 0.12 91 1010.2
20260503033524 45 0 0.0 1.0 0.00 0.12 0.12 91 1010.1
20260503033040 45 0 0.0 0.0 0.00 0.12 0.12 91 1010.2
20260503032530 45 0 0.0 0.0 0.00 0.12 0.12 90 1010.2
20260503032028 45 0 0.0 0.0 0.00 0.12 0.12 90 1010.2
20260503031536 45 0 0.0 0.0 0.00 0.12 0.12 90 1010.2
20260503031025 45 0 0.0 0.0 0.00 0.12 0.12 90 1010.1
20260503030524 46 0 0.0 0.0 0.00 0.12 0.12 90 1010.1
20260503030048 46 0 0.0 0.0 0.00 0.12 0.12 89 1010.2
20260503025525 46 0 0.0 0.0 0.00 0.12 0.12 89 1010.1
20260503025029 46 0 0.0 0.0 0.00 0.12 0.12 89 1010.1
20260503024541 46 0 0.0 0.0 0.00 0.12 0.12 89 1010.1
20260503024029 46 0 0.0 0.0 0.00 0.12 0.12 88 1010.1
20260503023524 46 0 0.0 0.0 0.00 0.12 0.12 88 1010.1
20260503023039 46 0 0.0 0.0 0.00 0.12 0.12 88 1010.1
20260503022527 47 0 0.0 0.0 0.00 0.12 0.12 88 1010.1
20260503022025 47 0 0.0 0.0 0.00 0.12 0.12 87 1010.1
20260503021538 47 0 0.0 0.0 0.00 0.12 0.12 87 1010.2
20260503021028 47 0 0.0 0.0 0.00 0.12 0.12 87 1010.3
20260503020528 47 0 0.0 0.0 0.00 0.12 0.12 87 1010.3
20260503020050 47 0 0.0 0.0 0.00 0.12 0.12 86 1010.4
20260503015528 47 0 0.0 0.0 0.00 0.12 0.12 86 1010.3
20260503015027 48 0 0.0 0.0 0.00 0.12 0.12 85 1010.5
20260503014556 48 0 0.0 0.0 0.00 0.12 0.12 85 1010.4
20260503014024 48 0 0.0 1.0 0.00 0.12 0.12 84 1010.4
20260503013527 49 0 0.0 1.0 0.00 0.12 0.12 84 1010.4
20260503013041 49 0 0.0 1.0 0.00 0.12 0.12 84 1010.3
20260503012530 49 0 0.0 0.0 0.00 0.12 0.12 83 1010.3